FW5968 Weather Reports


time (UTC)temp
C
wind
direction
speed
KPH
gust
KPH
rain 1hr
cm
rain 24hr
cm
rain mn
cm
humidity
%
barometer
mb
20200930060515 17 0.0 0.0 0.00 0.00 0.00 92 1016.3
20200930055525 17 0.0 0.0 0.00 0.00 0.00 91 1016.2
20200930054518 17 0.0 0.0 0.00 0.00 0.00 92 1016.3
20200930053518 17 0.0 0.0 0.00 0.00 0.00 93 1016.2
20200930052515 17 0.0 0.0 0.00 0.00 0.00 94 1016.1
20200930051517 17 0.0 0.0 0.00 0.00 0.00 94 1016.0
20200930050520 17 0.0 0.0 0.00 0.00 0.00 94 1016.0
20200930045518 17 0.0 0.0 0.00 0.00 0.00 94 1015.9
20200930044516 17 0.0 0.0 0.00 0.00 0.00 95 1015.8
20200930043515 17 0.0 0.0 0.00 0.00 0.00 95 1015.7
20200930042516 17 0.0 0.0 0.00 0.00 0.00 94 1015.6
20200930041515 17 0.0 0.0 0.00 0.00 0.00 94 1015.5
20200930035516 17 0.0 0.0 0.00 0.00 0.00 94 1015.6
20200930034519 17 0.0 0.0 0.00 0.00 0.00 93 1015.7
20200930033520 17 0.0 0.0 0.00 0.00 0.00 93 1015.7
20200930032516 17 0.0 0.0 0.00 0.00 0.00 92 1015.7
20200930031523 17 0.0 0.0 0.00 0.00 0.00 91 1015.8
20200930030517 17 0.0 0.0 0.00 0.00 0.00 89 1015.9
20200930025517 17 0.0 0.0 0.00 0.00 0.00 86 1016.1
20200930024531 17 0.0 0.0 0.00 0.00 0.00 87 1016.1
20200930023516 17 0.0 0.0 0.00 0.00 0.00 83 1016.1
20200930022522 17 0.0 0.0 0.00 0.00 0.00 83 1016.2
20200930021519 17 0.0 0.0 0.00 0.00 0.00 82 1016.3
20200930020516 17 0.0 0.0 0.00 0.00 0.00 81 1016.4
20200930015518 17 0.0 0.0 0.00 0.00 0.00 79 1016.4
20200930012519 17 0.0 0.0 0.00 0.00 0.00 73 1016.5
20200930011516 18 0.0 0.0 0.00 0.00 0.00 70 1016.5
20200930010530 18 0.0 0.0 0.00 0.00 0.00 66 1016.4
20200930005518 18 0.0 0.0 0.00 0.00 0.00 61 1016.4
20200930004520 18 0.0 0.0 0.00 0.00 0.00 61 1016.5
20200930003520 18 0.0 0.0 0.00 0.00 0.00 64 1016.5
20200930002518 18 0.0 0.0 0.00 0.00 0.00 66 1016.4
20200930001521 18 0.0 0.0 0.00 0.00 0.00 68 1016.5
20200930000522 18 0.0 0.0 0.00 0.00 0.00 69 1016.5
20200929235515 18 0.0 0.0 0.00 0.00 0.00 66 1016.4
20200929234521 18 0.0 0.0 0.00 0.00 0.00 63 1016.4
20200929233521 18 0.0 0.0 0.00 0.00 0.00 61 1016.3
20200929231528 18 0.0 0.0 0.00 0.00 0.00 59 1016.2
20200929230519 18 0.0 0.0 0.00 0.00 0.00 73 1016.2
20200929225517 18 0.0 0.0 0.00 0.00 0.00 57 1016.2
20200929224520 18 0.0 0.0 0.00 0.00 0.00 59 1016.2
20200929223517 18 0.0 0.0 0.00 0.00 0.00 60 1016.1
20200929222517 18 0.0 0.0 0.00 0.00 0.00 62 1016.2
20200929221519 18 0.0 0.0 0.00 0.00 0.00 62 1016.2
20200929220516 18 0.0 0.0 0.00 0.00 0.00 66 1016.1
20200929215515 18 0.0 0.0 0.00 0.00 0.00 66 1016.0
20200929214518 18 0.0 0.0 0.00 0.00 0.00 68 1015.9
20200929213516 18 0.0 0.0 0.00 0.00 0.00 68 1015.9
20200929212517 18 0.0 0.0 0.00 0.00 0.00 67 1015.9
20200929211524 18 0.0 0.0 0.00 0.00 0.00 67 1015.9
20200929210517 18 0.0 0.0 0.00 0.00 0.00 66 1015.7
20200929205516 18 0.0 0.0 0.00 0.00 0.00 66 1015.7
20200929204517 18 0.0 0.0 0.00 0.00 0.00 68 1015.6
20200929203515 19 0.0 0.0 0.00 0.00 0.00 65 1015.6
20200929202517 19 0.0 0.0 0.00 0.00 0.00 61 1015.5
20200929201520 20 0.0 0.0 0.00 0.00 0.00 58 1015.5
20200929195515 20 0.0 0.0 0.00 0.00 0.00 59 1015.5
20200929194519 20 0.0 0.0 0.00 0.00 0.00 61 1015.4
20200929193524 20 0.0 0.0 0.00 0.00 0.00 60 1015.4
20200929192518 20 0.0 0.0 0.00 0.00 0.00 66 1015.4
20200929191516 20 0.0 0.0 0.00 0.00 0.00 58 1015.3
20200929190521 20 0.0 0.0 0.00 0.00 0.00 59 1015.3
20200929185517 20 0.0 0.0 0.00 0.00 0.00 60 1015.2
20200929184519 20 0.0 0.0 0.00 0.00 0.00 60 1015.2
20200929183518 21 0.0 0.0 0.00 0.00 0.00 58 1015.1
20200929182517 21 0.0 0.0 0.00 0.00 0.00 58 1015.1
20200929181517 21 0.0 0.0 0.00 0.00 0.00 59 1015.0
20200929180515 21 0.0 0.0 0.00 0.00 0.00 60 1015.0
20200929175518 21 0.0 0.0 0.00 0.00 0.00 59 1015.0
20200929174516 21 0.0 0.0 0.00 0.00 0.00 55 1015.0
20200929173516 21 0.0 0.0 0.00 0.00 0.00 77 1014.9
20200929172521 21 0.0 0.0 0.00 0.00 0.00 60 1014.9
20200929171518 22 0.0 0.0 0.00 0.00 0.00 59 1014.8
20200929170517 22 0.0 0.0 0.00 0.00 0.00 60 1014.7
20200929165515 22 0.0 0.0 0.00 0.00 0.00 60 1014.7
20200929164519 22 0.0 0.0 0.00 0.00 0.00 60 1014.7
20200929162515 22 0.0 0.0 0.00 0.00 0.00 60 1014.6
20200929161522 22 0.0 0.0 0.00 0.00 0.00 60 1014.6
20200929154518 22 0.0 0.0 0.00 0.00 0.00 61 1014.7
20200929153517 22 0.0 0.0 0.00 0.00 0.00 62 1014.7
20200929152522 23 0.0 0.0 0.00 0.00 0.00 61 1014.6
20200929151525 23 0.0 0.0 0.00 0.00 0.00 61 1014.5
20200929150530 23 0.0 0.0 0.00 0.00 0.00 61 1014.6
20200929145518 23 0.0 0.0 0.00 0.00 0.00 60 1014.6
20200929144517 23 0.0 0.0 0.00 0.00 0.00 60 1014.6
20200929143518 23 0.0 0.0 0.00 0.00 0.00 60 1014.7
20200929142517 23 0.0 0.0 0.00 0.00 0.00 60 1014.8
20200929141518 23 0.0 0.0 0.00 0.00 0.00 61 1014.9
20200929140520 23 0.0 0.0 0.00 0.00 0.00 62 1014.9
20200929135520 23 0.0 0.0 0.00 0.00 0.00 63 1014.9
20200929134522 23 0.0 0.0 0.00 0.00 0.00 61 1014.9
20200929133530 23 0.0 0.0 0.00 0.00 0.00 61 1015.1
20200929132517 23 0.0 0.0 0.00 0.00 0.00 60 1015.2
20200929131528 23 0.0 0.0 0.00 0.00 0.00 61 1015.3
20200929130516 22 0.0 0.0 0.00 0.00 0.00 63 1015.4
20200929125519 22 0.0 0.0 0.00 0.00 0.00 64 1015.5
20200929124522 22 0.0 0.0 0.00 0.00 0.00 64 1015.6
20200929123518 22 0.0 0.0 0.00 0.00 0.00 64 1015.7
20200929122517 22 0.0 0.0 0.00 0.00 0.00 66 1015.8
20200929121526 22 0.0 0.0 0.00 0.00 0.00 66 1015.9
20200929120526 22 0.0 0.0 0.00 0.00 0.00 64 1016.0
20200929115518 22 0.0 0.0 0.00 0.00 0.00 64 1016.0
20200929114520 21 0.0 0.0 0.00 0.00 0.00 64 1016.2
20200929113522 21 0.0 0.0 0.00 0.00 0.00 64 1016.1
20200929112519 21 0.0 0.0 0.00 0.00 0.00 66 1016.2
20200929111533 21 0.0 0.0 0.00 0.00 0.00 67 1016.3
20200929110521 21 0.0 0.0 0.00 0.00 0.00 66 1016.3
20200929105516 21 0.0 0.0 0.00 0.00 0.00 67 1016.4
20200929104517 20 0.0 0.0 0.00 0.00 0.00 67 1016.4
20200929103519 20 0.0 0.0 0.00 0.00 0.00 67 1016.5
20200929102515 20 0.0 0.0 0.00 0.00 0.00 67 1016.5
20200929101534 20 0.0 0.0 0.00 0.00 0.00 68 1016.5
20200929100518 20 0.0 0.0 0.00 0.00 0.00 68 1016.5
20200929094519 20 0.0 0.0 0.00 0.00 0.00 69 1016.4
20200929093516 20 0.0 0.0 0.00 0.00 0.00 69 1016.4
20200929092516 20 0.0 0.0 0.00 0.00 0.00 69 1016.3
20200929090529 20 0.0 0.0 0.00 0.00 0.00 63 1016.2
20200929085517 19 0.0 0.0 0.00 0.00 0.00 63 1016.2
20200929084517 19 0.0 0.0 0.00 0.00 0.00 65 1016.2
20200929083517 18 0.0 0.0 0.00 0.00 0.00 65 1016.2
20200929082517 18 0.0 0.0 0.00 0.00 0.00 67 1016.2
20200929081517 18 0.0 0.0 0.00 0.00 0.00 68 1016.1
20200929080520 18 0.0 0.0 0.00 0.00 0.00 69 1016.0
20200929075517 18 0.0 0.0 0.00 0.00 0.00 70 1015.9
20200929074524 18 0.0 0.0 0.00 0.00 0.00 71 1015.9
20200929073516 17 0.0 0.0 0.00 0.00 0.00 73 1015.9
20200929072516 17 0.0 0.0 0.00 0.00 0.00 74 1015.9
20200929071521 17 0.0 0.0 0.00 0.00 0.00 78 1015.7
20200929065517 17 0.0 0.0 0.00 0.00 0.00 78 1015.6
20200929064529 17 0.0 0.0 0.00 0.00 0.00 79 1015.5
20200929063516 17 0.0 0.0 0.00 0.00 0.00 78 1015.5
20200929062528 17 0.0 0.0 0.00 0.00 0.00 79 1015.3
20200929061516 17 0.0 0.0 0.00 0.00 0.00 80 1015.2